sat.trackr.live / text

‹ back to catalog

STARLINK-3613

NORAD 51810 · 2022-017AU

PAYLOAD ACTIVE UNKNOWN

§ Identity

Operator
Country
US
Launch date
2022-02-25
Launch site
AFWTR
Launch vehicle
Mass (kg)
RCS (m²)

Purposes: comms

External: N2YO · Heavens-Above · Gunter

§ Orbital elements

Epoch: 2026-09-19T05:22:36.050304Z

Period
93.85 min
Inclination
53.1613°
Eccentricity
0.0001214
Mean motion
15.34392715 rev/d
Perigee alt
461.9 km
Apogee alt
463.6 km
Semi-major
6,840.9 km
B*
4.9777e-5
RAAN
169.3739°
Arg perigee
83.2338°
Mean anomaly
276.8802°
Rev number
25,344

§ Raw data

STARLINK-36131 51810U 22017AU  26262.22402836  .00001306  00000+0  49777-4 0  99992 51810  53.1613 169.3739 0001214  83.2338 276.8802 15.34392715253440

JSON: /api/v1/satellites/51810 · /tle

For live sub-satellite position, see the globe view (requires WebGL).

§ Visibility from observer

Set your observer location to see the next 7 days of passes ≥ 10°. The values pass through the URL so the page stays shareable.

No JS? Fill the form by hand. The geolocation button needs JavaScript.